Regional Weather Roundup
Issued by NWS

Home | Current Version | Previous Version | Text Only | Print | Product List | Glossary Off
Versions: 1 2 3 4 5 6 7 8 9 10 11 12 13 14 15 16 17 18 19 20 21 22 23 24 25 26 27

000
ASUS45 KBOU 161410
RWRCO

WEATHER ROUNDUP FOR COLORADO
NATIONAL WEATHER SERVICE DENVER/BOULDER CO
700 AM MST TUE JAN 16 2018

NOTE: "FAIR" INDICATES FEW OR NO CLOUDS BELOW 12000 FEET WITH NO
SIGNIFICANT WEATHER AND/OR OBSTRUCTIONS TO VISIBILITY.

COZ001>005-013-030-031-161500-
...NORTHWEST COLORADO...

CITY           SKY/WX    TMP DP  RH WIND       PRES   REMARKS
CRAIG          FAIR      -3  -8  79 CALM      30.45R
HAYDEN         FAIR       2  -6  69 E16       30.42S WCI -18
MEEKER         FAIR       8   2  76 E5        30.43R WCI   0
RABBIT EARS PA FAIR      12 -24  18 MISG      30.29S
STEAMBOAT SPGS FAIR      -5  -8  86 CALM      30.42F
WALDEN         FAIR     -11 -18  70 SE3       30.41S
$$

COZ006>008-011-161500-
...WEST CENTRAL VALLEYS...

CITY           SKY/WX    TMP DP  RH WIND       PRES   REMARKS
GRAND JUNCTION FAIR      21  13  71 E9        30.42R WCI  11
MONTROSE       FAIR      16  12  84 S7        30.44R WCI   6
EAGLE          FAIR       5  -1  76 CALM      30.51R
RIFLE          FAIR      16  11  80 CALM      30.45R
DELTA          FAIR      17  12  79 E3        30.44R
NUCLA          FAIR      19  14  79 E8        30.41S WCI   9
$$

COZ017>023-064>068-161500-
...SOUTHWEST COLORADO...

CITY           SKY/WX    TMP DP  RH WIND       PRES   REMARKS
DURANGO        FAIR      16  15  96 CALM      30.36R
CORTEZ         FAIR      15  12  88 E6        30.35R WCI   6
PAGOSA SPRINGS CLOUDY    21  11  64 E3        30.35R
TELLURIDE      FAIR      16  -7  35 SE7       30.33S WCI   7
WOLF CREEK PAS FAIR      18 -29  11 CALM      30.35R
$$

COZ009-010-012-014-032>034-037-058>063-161500-
...CENTRAL COLORADO...

CITY           SKY/WX    TMP DP  RH WIND       PRES   REMARKS
ASPEN          FAIR       4  -1  80 SW5       30.36R WCI  -5
BUENA VISTA    FAIR       0  -5  80 CALM      30.38S
COPPER MTN     NOT AVBL
BERTHOUD PASS  FAIR       1  -9  60 NW16G23   30.25S WCI -18
COTTONWOOD PAS NOT AVBL
GUNNISON       CLOUDY    11   4  73 N7        30.42  WCI   0
KREMMLING      NOT AVBL
LEADVILLE      FAIR      -6 -22  46 NE6       30.32R WCI -19
MONARCH PASS   FAIR      12 -17  26 W12       30.39R WCI  -2
SALIDA         FAIR      10   6  84 NW3       30.47S
SUNLIGHT       FAIR      10   0  61 E6        30.35R WCI   1
WILKERSON PASS FAIR      14 -47   5 N8        30.30S WCI   3
$$

COZ069>075-161500-
...SAN LUIS VALLEY/SANGRE DE CRISTO MOUNTAINS...

CITY           SKY/WX    TMP DP  RH WIND       PRES   REMARKS
ALAMOSA        CLOUDY    18  12  77 NW6       30.39R WCI  10
DEL NORTE      CLOUDY    13   9  82 W5        30.39S WCI   5
LA VETA PASS   CLOUDY    12  10  92 SW18        N/A  FOG     WCI  -5
SAGUACHE       CLOUDY    18  14  86 CALM      30.40S
$$

COZ035-036-038>040-161500-
...NORTHERN COLORADO FRONT RANGE...

CITY           SKY/WX    TMP DP  RH WIND       PRES   REMARKS
DENVER INTL AP FAIR       5  -2  72 SW5       30.45S WCI  -4
DMNS CITY PARK NOT AVBL
AURORA         PTCLDY     7   2  80 S8        30.44S WCI  -6
FRONT RANGE AP PTCLDY     7  -8  51 S5        30.45S WCI  -2
ERIE MUNI ARPT FAIR      -4  -8  82 CALM      30.53F
BOULDER MUN AP FAIR       5   3  92 CALM      30.45F
CENTENNIAL     FAIR       3   0  87 VRB3      30.42S
BROOMFIELD     PTCLDY     7   0  72 SW3       30.43F
FORT COLLINS   FAIR      -1  -4  87 CALM      30.48F
LONGMONT       FAIR      -1  -6  79 CALM      30.50S
$$

COZ041-046-047-076>085-087-088-161500-
...PIKES PEAK/PALMER DIVIDE AND SOUTHERN FOOTHILLS...

CITY           SKY/WX    TMP DP  RH WIND       PRES   REMARKS
COLO. SPRINGS  FAIR       0  -5  79 N5        30.43S WCI -10
A. F. ACADEMY  PTCLDY    -2  -7  80 N5        30.39F WCI -12
SCHRIEVER AFB  FAIR       2  -3  78 CALM      30.43S
CHEYENNE MTN   FAIR      12  10  91 CALM      30.33R
ELLICOTT         N/A    N/A N/A N/A N3          N/A
FALCON         FAIR       2  -3  80 W5        30.38S WCI  -8
FORT CARSON    FAIR      -1  -6  80 N5        30.43F WCI -11
LIMON          FAIR     -11 -14  86 VRB5      30.47F WCI -23
MONUMENT HILL  FAIR      -2  -9  71 SW6       30.38F WCI -14
CANON CITY     FAIR       7   1  78 CALM      30.48S
WALSENBURG     FAIR       1  -2  85 CALM      30.44S
TRINIDAD       FAIR      -2  -6  83 W7        30.46F WCI -15
$$

COZ042>045-048>051-090-091-161500-
...NORTHEAST COLORADO...

CITY           SKY/WX    TMP DP  RH WIND       PRES   REMARKS
GREELEY ARPT   FAIR      -7 -11  83 CALM      30.52F
AKRON          FAIR      -7 -12  79 W10       30.50F WCI -25
BURLINGTON     FAIR      -7 -12  79 W3        30.57R
WRAY           FAIR      -8 -13  77 W5        30.61F WCI -19
YUMA           FAIR      -8 -15  71 W7        30.56S WCI -22
STERLING       FAIR      -6  -9  84 S6        30.56F WCI -18
HOLYOKE        FAIR      -6 -11  77 W7        30.59F WCI -20
FORT MORGAN    FAIR     -10 -15  78 W6        30.53F WCI -24
$$

COZ086-089-092>099-161500-
...SOUTHEAST COLORADO...

CITY           SKY/WX    TMP DP  RH WIND       PRES   REMARKS
PUEBLO         FAIR      -1  -7  75 NE6       30.53S WCI -13
LA JUNTA       FAIR       0  -5  79 NW6       30.58S WCI -12
LAMAR          FAIR      -8 -14  74 S6        30.62R WCI -21
SPRINGFIELD      N/A     -7 -11  83 W6        30.57R WCI -20
$$




USA.gov is the U.S. government's official web portal to all federal, state and local government web resources and services.